Location: Alfortville
(48.8058°N, 2.4204°E)
Time: 05:31:17
(UTC+00:00)

VELOX 1 - Visible Passes

Search period start: 23 March 2023 00:00
Search period end: 02 April 2023 00:00
Orbit: 618 x 633 km, 98.4° (Epoch: 22 March)

Date Brightness Start Highest point End Pass type
(mag) Time Alt. Az. Time Alt. Az. Time Alt. Az.
23 Mar ? 04:01:38 10° ESE 04:04:53 21° ENE 04:08:09 10° NNE visible
23 Mar ? 18:56:37 10° N 19:00:48 48° WNW 19:04:57 10° SW visible
24 Mar ? 04:19:58 10° SE 04:23:46 29° ENE 04:27:34 10° N visible
24 Mar ? 19:15:52 10° N 19:19:44 32° WNW 19:23:35 10° SW visible
25 Mar ? 04:38:33 10° SE 04:42:41 43° ENE 04:46:50 10° N visible
25 Mar ? 19:35:13 10° N 19:38:36 23° WNW 19:41:59 10° WSW visible
26 Mar ? 04:57:18 10° SSE 05:01:38 65° ENE 05:05:59 10° N visible
26 Mar ? 19:54:45 10° NNW 19:57:24 16° WNW 20:00:03 10° W visible
27 Mar ? 03:42:46 10° E 03:45:02 14° ENE 03:47:20 10° NNE visible
27 Mar ? 18:36:23 10° NNE 18:40:44 78° WNW 18:45:02 10° SSW visible
27 Mar ? 20:14:49 10° NW 20:16:09 11° NW 20:17:29 10° WNW visible
28 Mar ? 04:00:39 10° ESE 04:03:49 20° ENE 04:06:59 10° NNE visible
28 Mar ? 18:55:28 10° N 18:59:40 51° WNW 19:03:51 10° SW visible
29 Mar ? 04:18:55 10° ESE 04:22:37 28° ENE 04:26:21 10° N visible
29 Mar ? 19:14:37 10° N 19:18:33 34° WNW 19:22:26 10° SW visible
30 Mar ? 04:37:23 10° SE 04:41:28 41° ENE 04:45:34 10° N visible
30 Mar ? 19:33:53 10° N 19:37:21 24° WNW 19:40:48 10° WSW visible
31 Mar ? 04:56:03 10° SSE 05:00:21 62° ENE 05:04:40 10° N visible
31 Mar ? 19:53:21 10° NNW 19:56:06 17° WNW 19:58:51 10° W visible
01 Apr ? 03:41:38 10° E 03:43:44 13° ENE 03:45:51 10° NNE visible
01 Apr ? 20:13:13 10° NNW 20:14:48 12° NW 20:16:23 10° WNW visible
